Flag for Canada Weather past 2 weeks in Oshawa, Ontario, Canada

Now
81 °F

Partly sunny.


Feels Like: 81 °F
Forecast: 59 / 76 °F
Wind: 8 mph from Southwest

Location: Toronto Buttonville

Current Time: May 26, 2015 at 12:30:21 PM

Latest Report: May 26, 2015 at 11:00 AM


Visibility: 15 mi

Pressure: 30.05 "Hg

Humidity: 51%

Dew point: 61 °F

Location of OshawaLocation

Historic Weather in Oshawa — Graph

°F

Oshawa temperature yesterday

Maximum temperature yesterday: 81 °F (at 5:00 PM)
Minimum temperature yesterday: 61 °F (at 4:00 AM)
Average temperature yesterday: 70 °F

Past Weeks' High & Low Weather Summary

 TemperatureHumidityPressure
High82 °F (May 18, 2:00 PM)100% (May 11, 10:00 PM)30.49 "Hg (May 11, 10:00 PM)
Low37 °F (May 20, 6:00 AM)19% (May 23, 4:00 PM)29.74 "Hg (May 12, 3:00 AM)
Average59 °F57%30.09 "Hg
* Reported May 11 11:00 AM — May 26 11:00 AM, Oshawa, Weather by CustomWeather, © 2015

Note: Actual official high and low records may vary slightly from our data, if they occured in-between our weather recording intervals... More about our weather records

Advertising

Oshawa weather history for previous 24 hours

 ConditionsComfort  
Time TempWeatherWind HumidityBarometerVisibility
11:00 AM
Tue, May 26
81 °FPartly sunny.8 mph51%30.05 "Hg15 mi
10:00 AM77 °FPartly sunny.10 mph61%30.06 "Hg12 mi
9:00 AM75 °FOvercast.10 mph65%30.06 "Hg12 mi
8:00 AM72 °FPartly sunny.10 mph73%30.06 "Hg12 mi
7:00 AM68 °FPartly sunny.3 mph83%30.04 "Hg15 mi
6:00 AM68 °FPassing clouds.3 mph78%30.03 "Hg15 mi
5:00 AM68 °FPassing clouds.2 mph78%30.01 "Hg15 mi
4:00 AM68 °FPassing clouds.5 mph78%29.99 "Hg15 mi
3:00 AM68 °FPassing clouds.2 mph83%29.99 "Hg15 mi
2:00 AM70 °FPassing clouds.6 mph78%29.98 "Hg15 mi
1:00 AM70 °FSprinkles. Passing clouds.9 mph83%29.97 "Hg13 mi
12:00 AM72 °FSprinkles. Passing clouds.7 mph73%29.96 "Hg12 mi
11:00 PM
Mon, May 25
75 °FPassing clouds.14 mph61%29.95 "Hg15 mi
10:00 PM75 °FPassing clouds.14 mph61%29.95 "Hg15 mi
9:00 PM77 °FPassing clouds.10 mph57%29.93 "Hg15 mi
8:00 PM79 °FPartly sunny.17 mph54%29.91 "Hg15 mi
7:00 PM81 °FPartly sunny.22 mph48%29.91 "Hg15 mi
6:00 PM81 °FBroken clouds.13 mph48%29.93 "Hg15 mi
5:00 PM81 °FMostly cloudy.15 mph48%29.94 "Hg15 mi
4:00 PM79 °FMore clouds than sun.9 mph51%29.96 "Hg15 mi
3:00 PM75 °FMostly cloudy.10 mph57%29.97 "Hg15 mi
2:00 PM73 °FLight rain. Mostly cloudy.13 mph53%29.99 "Hg15 mi
1:00 PM73 °FBroken clouds.10 mph57%30.00 "Hg15 mi
12:00 PM72 °FMostly cloudy.8 mph53%30.02 "Hg15 mi
Weather by CustomWeather, © 2015

See weather overviewHow to use our weather pages